817  
ASUS42 KMHX 011016  
RWRMHX  
WEATHER ROUNDUP FOR EASTERN NORTH CAROLINA  
NATIONAL WEATHER SERVICE NEWPORT/MOREHEAD CITY NC  
500 AM EST FRI MAR 01 2024  
 
NOTE: "FAIR" INDICATES FEW OR NO CLOUDS BELOW 12,000 FEET  
WITH NO SIGNIFICANT WEATHER AND/OR S TO VISIBILITY
 
 
NCZ015>017-031-032-045>047-102-103-011100-  
NORTH COAST  
 
CITY SKY/WX TMP DP RH WIND PRES REMARKS
 
EDENTON PTCLDY 33 33 100 CALM 30.55R  
ELIZABETH CITY PTCLDY 36 33 89 CALM 30.54R  
KITTY HAWK PTCLDY 39 32 75 CALM 30.53R  
MANTEO PTCLDY 33 31 92 CALM 30.55R  
 

 
 
NCZ045>047-081-094-103-104-011100-  
CENTRAL COAST  
 
CITY SKY/WX TMP DP RH WIND PRES REMARKS
 
FRISCO PTCLDY 44 33 65 NE6 30.53R  
ENGELHARD PTCLDY 33 32 97 CALM 30.54R FOG  
 

 
 
NCZ095-097-098-100-101-011100-  
SOUTHERN COAST  
 
CITY SKY/WX TMP DP RH WIND PRES REMARKS
 
PINEY ISLAND MOCLDY 55 34 45 NE9 30.51R  
HAVELOCK MOCLDY 40 35 83 CALM 30.51R  
BEAUFORT MOCLDY 47 35 63 NE8 30.50R  
CAPE CARTERET MOCLDY 46 31 55 NE7 30.50R  
JACKSONVILLE MOCLDY 46 31 55 E7 30.49S  
WILMINGTON CLOUDY 47 29 49 NE8 30.48R  
 

 
 
NCZ011>013-027>030-043-044-078>080-089-090>093-098-011100-  
COASTAL PLAIN  
 
CITY SKY/WX TMP DP RH WIND PRES REMARKS
 
AHOSKIE PTCLDY 28 28 100 CALM 30.54R  
TARBORO MOCLDY 32 31 96 CALM 30.53S  
WILLIAMSTON PTSUNNY 33 31 94 CALM 30.54R  
ROCKY MOUNT CLOUDY 36 32 85 CALM 30.51R  
GREENVILLE MOCLDY 36 36 100 CALM 30.53R  
WASHINGTON MOCLDY 36 33 90 CALM 30.54R  
GOLDSBORO CLOUDY 38 32 80 E5 30.50F  
KINSTON MOCLDY 38 35 89 CALM 30.52R  
MOUNT OLIVE CLOUDY 42 32 67 E7 30.50R  
NEW BERN MOCLDY 44 35 70 E3 30.52R  
KENANSVILLE CLOUDY 41 34 75 E5 30.50S  
RICHLANDS MOCLDY 41 35 79 NE3 30.50S  
WALLACE CLOUDY 43 33 68 E6 30.49S  
CLINTON CLOUDY 44 32 62 E5 30.49S  
ELIZABETHTOWN CLOUDY 44 33 67 E5 30.47F  
WHITEVILLE CLOUDY 46 33 61 NE7 30.47S  
 

 
 
AMZ130-135-150-152-154-156-158-170-250-252-270-ANZ085-086-088-633-658-670-011100-  
MARINE OBSERVATIONS  
 
STATION/POSITION TIME TEMP WIND PRES WAVE SWELL
 
AIR SEA DIR/SP/G HT/PER HT/PER  
(UTC) (F) (DEG/KT/KT) (MB) (FT/S) (FT/S)  
64 E VA BEACH 0950 46 49 20/ 2/ 4 1034.8 2/ 6 2/ 6  
64 E VA BEACH 0930 45 49 N/A 2/ 7  
DUCK PIER 0924 43 160/ 4/ 4 1033.8  
2 E DUCK 0956 47 N/A 2/ 7  
10 NE DUCK 0930 44 46 N/A 2/ 7  
OREGON INLET 0924 42 51 40/ 2/ 3 1034.8  
13E OREGON INLT 0956 51 N/A 4/ 7 3/ 7  
13E CAPE HATTERA 0900 60 N/A 3/ 7 2/11  
HATTERAS CG 0924 47 54 70/ 5/ 6 1033.6  
DIAMOND BUOY 1000 57 30/ 12/ 14 1033.3  
CAPE LOOKOUT 1000 51 30/ 16/ 18 1033.2  
BEAUFORT LAB 0924 47 55 40/ 6/ 9 1031.9  
30 SE NEW RVR IN 0908 53 55 40/ 17/ 23 1031.6  
30 SE NEW RVR IN 0956 55 N/A 4/ 4  
27 SE WRIGHTSVLE 0908 53 55 40/ 17/ 23 1031.4  
5 SE WRIGHTSVLE NOT AVBL  
27 SE WRIGHTSVL 0908 53 55 40/ 17/ 23 1031.4  
FRYING PAN BUOY 1000 56 58 50/ 19/ 23 1030.6  
225 S CAPE HAT 1000 64 71 80/ 17/ 23 1027.7  
41 SE CHARLESTON 1000 65 66 100/ 16/ 21 1028.3  
 

 
 
 
CLICK HERE TO GO TO PREVIOUS BULLETINS.

The Nexlab NC Page Main Text Page